Погода в Кимчхоне

Южная Корея     36°07′23″N   128°06′52″E
темп.,
°C
ветер,
м/с
пор.,
м/с
влажн.,
%
обл.,
%
осадки,
мм/ч
давл.,
гПа
погр.,
м
17 апреля, сб
сб1700:00+8зсз1189100 0.0 101818
03:00+7зсз1192100 0.0 101615
06:00+6зюз11920 0.0 101410
09:00+14ююз13607 0.0 1013955
12:00+13з6103615 0.1 10131810
15:00+12з712331 0.1 10112868
18:00+8зсз714480 0.0 10122027
21:00+4з412530 0.0 10151021
18 апреля, вс
вс1800:00+3з614655 0.0 10141180
03:00+4зсз7138264 0.0 10141050
06:00+4зсз61377100 0.0 10151073
09:00+7зсз6106327 0.0 10161064
12:00+12зсз711370 0.0 10151715
15:00+14сз69280 0.0 10141762
18:00+11сз59400 0.0 10151357
21:00+6з35700 0.0 1018158
19 апреля, пн
пн1900:00+4зюз22730 0.0 101837
03:00+3з22590 0.0 101835
06:00+3зюз22560 0.0 101927
09:00+13зсз27290 0.0 1017843
12:00+17зсз47230 0.0 10161296
15:00+18зсз57260 0.0 10151353
18:00+15з37390 0.0 1016600
21:00+9зюз32590 0.0 101834
20 апреля, вт
вт2000:00+8з22530 0.0 101926
03:00+7з22582 0.0 101929
06:00+6з22560 0.0 102025
09:00+16сз24294 0.0 1020594
12:00+21сз24213 0.0 10201152
15:00+22сз34235 0.0 10181502
18:00+19сз22390 0.0 101942
21:00+13з22502 0.0 102214
21 апреля, ср
ср2100:00+11з22585 0.0 102316
03:00+10з21605 0.0 102312
06:00+10з11570 0.0 102410
09:00+19всв11360 0.0 1024352
12:00+23всв22265 0.0 10221155
15:00+25вюв33235 0.0 10202300
18:00+21юв253684 0.0 1019174
21:00+15юз225444 0.0 102216